Overview Statistics Trail Chart Weather Telemetry Raw packets
 

This is the latest recevied weather packets stored in our database for station/object VE8SKI. If no packets are shown the sender has not sent any weather packets the latest 10 day(s).

<< 86 87 88 89 90 91 92 >>
Time Temp. Humidity Pressure Rain* Wind** Luminosity Snow
1777468850 -1.11° C 81% 1022.2 hPa 0 mm 0 m/s - -
1777468550 -1.11° C 80% 1022.3 hPa 0 mm 0.45 m/s, 359° - -
1777468250 -0.56° C 78% 1022.4 hPa 0 mm 0.89 m/s, 124° - -
1777467950 -1.11° C 79% 1022.6 hPa 0 mm 0.89 m/s, 111° - -
1777467651 -1.67° C 82% 1022.8 hPa 0 mm 0 m/s - -
1777467351 -2.22° C 84% 1022.8 hPa 0 mm 0.89 m/s, 135° - -
1777467048 -2.22° C 86% 1022.9 hPa 0 mm 0.89 m/s, 132° - -
1777466748 -2.78° C 87% 1023 hPa 0 mm 0.89 m/s, 138° - -
1777466448 -2.78° C 88% 1023.1 hPa 0 mm 0.45 m/s, 165° - -
1777466148 -3.33° C 89% 1023.1 hPa 0 mm 1.34 m/s, 125° - -
1777465848 -3.33° C 89% 1023.2 hPa 0 mm 1.34 m/s, 174° - -
1777465549 -3.33° C 90% 1023.2 hPa 0 mm 0.89 m/s, 142° - -
1777465246 -3.89° C 92% 1023.3 hPa 0 mm 1.34 m/s, 141° - -
1777464946 -3.89° C 92% 1023.4 hPa 0 mm 0 m/s - -
1777464646 -3.89° C 92% 1023.4 hPa 0 mm 0 m/s - -
1777464346 -3.89° C 92% 1023.5 hPa 0 mm 0 m/s - -
1777464046 -3.89° C 92% 1023.6 hPa 0 mm 0.45 m/s, 120° - -
1777463748 -3.89° C 92% 1023.6 hPa 0 mm 0.45 m/s, 98° - -
1777463443 -4.44° C 94% 1023.5 hPa 0 mm 1.34 m/s, 108° - -
1777463144 -4.44° C 94% 1023.6 hPa 0 mm 0 m/s - -
1777462844 -4.44° C 94% 1023.6 hPa 0 mm 0.45 m/s, 156° - -
1777462544 -4.44° C 94% 1023.8 hPa 0 mm 0 m/s - -
1777462244 -4.44° C 93% 1023.8 hPa 0 mm 0 m/s - -
1777461944 -4.44° C 94% 1023.9 hPa 0 mm 0.45 m/s, 135° - -
1777461641 -4.44° C 94% 1023.9 hPa 0 mm 0 m/s - -

* Rain latest hour (hover to see other rain measurements)
** Current wind speed in m/s (hover to see current wind gust speed)